Weather History for San Antonio Stinson, TX

Change the Weather History Date:

Friday, September 28, 2012

  Actual Average Record
Temperature  
Mean Temperature 76 °F -  
Max Temperature 84 °F 85 °F 102 °F (2005)
Min Temperature 69 °F 63 °F 54 °F (2000)
Cooling Degree Days 10    
Growing Degree Days 26 (Base 50)    
Moisture  
Dew Point 72 °F    
Average Humidity 91    
Maximum Humidity 100    
Minimum Humidity 67    
Precipitation  
Precipitation 1.15 in - - ()
Sea Level Pressure  
Sea Level Pressure 29.95 in    
Wind  
Wind Speed 5 mph (ENE)    
Max Wind Speed 16 mph    
Max Gust Speed 24 mph    
Visibility 7 miles    
Events Fog , Rain    
Averages and records for this station are not official NWS values.
T = Trace of Precipitation, MM = Missing Value Source: NWS Daily Summary

Daily Weather History Graph

Daily Weather History Graph

Search for Another Location

Airport:

Trip Planner

Search our weather history database for the weather conditions in past years. The results will help you decide how hot, cold, wet, or windy it might be!

Date:

Astronomy

Sep. 28, 2012 Rise Set
Actual Time 7:25 AM CDT 7:22 PM CDT
Civil Twilight 7:02 AM CDT 7:46 PM CDT
Nautical Twilight 6:34 AM CDT 8:13 PM CDT
Astronomical Twilight 6:06 AM CDT 8:41 PM CDT
Moon 6:24 PM CDT (9/28) 6:01 AM CDT (9/28)
Length of Visible Light 12h 44m
Length of Day
11h 56m
Waxing Gibbous, 98% of the Moon is Illuminated
Sep 28
Waxing Gibbous
Sep 29
Full
Oct 8
Last Quarter
Oct 15
New
Oct 21
First Quarter

Hourly Weather History & Observations

Time (CDT) Temp. Heat Index Dew Point Humidity Pressure Visibility Wind Dir Wind Speed Gust Speed Precip Events Conditions
12:33 AM 75.2 °F - 71.6 °F 89% 30.03 in 10.0 mi East 3.5 mph - N/A   Mostly Cloudy
12:53 AM 75.9 °F - 72.0 °F 87% 30.00 in 10.0 mi East 4.6 mph - N/A   Mostly Cloudy
1:53 AM 75.0 °F - 72.0 °F 90% 29.99 in 10.0 mi East 3.5 mph - N/A   Partly Cloudy
2:53 AM 75.0 °F - 72.0 °F 90% 29.98 in 10.0 mi East 3.5 mph - N/A   Clear
3:21 AM 73.4 °F - 71.6 °F 94% 30.01 in 10.0 mi East 3.5 mph - N/A   Scattered Clouds
3:29 AM 73.4 °F - 71.6 °F 94% 30.00 in 10.0 mi East 3.5 mph - N/A   Mostly Cloudy
3:53 AM 73.9 °F - 71.1 °F 91% 29.96 in 10.0 mi East 3.5 mph - N/A   Mostly Cloudy
4:24 AM 73.4 °F - 71.6 °F 94% 29.99 in 10.0 mi NE 4.6 mph - N/A   Mostly Cloudy
4:53 AM 73.9 °F - 71.1 °F 91% 29.95 in 10.0 mi ENE 4.6 mph - N/A   Overcast
5:53 AM 73.9 °F - 72.0 °F 93% 29.96 in 10.0 mi ENE 5.8 mph - N/A   Overcast
6:53 AM 73.9 °F - 72.0 °F 93% 29.97 in 8.0 mi ENE 4.6 mph - N/A   Overcast
7:53 AM 73.9 °F - 72.0 °F 93% 29.98 in 3.0 mi East 4.6 mph - N/A   Overcast
8:01 AM 73.4 °F - 71.6 °F 94% 30.01 in 3.0 mi ENE 3.5 mph - N/A   Overcast
8:53 AM 75.0 °F - 73.0 °F 94% 29.98 in 3.0 mi ENE 5.8 mph - N/A   Overcast
9:40 AM 75.2 °F - 73.4 °F 94% 30.02 in 5.0 mi East 5.8 mph - N/A   Overcast
9:53 AM 75.9 °F - 73.0 °F 91% 30.00 in 6.0 mi ENE 5.8 mph - N/A   Overcast
10:53 AM 77.0 °F - 73.9 °F 90% 30.00 in 3.0 mi ENE 5.8 mph - 0.01 in Rain Light Rain
11:05 AM 77.0 °F - 73.4 °F 89% 30.03 in 3.0 mi ENE 5.8 mph - 0.01 in Rain Light Rain
11:51 AM 78.8 °F - 75.2 °F 89% 30.02 in 10.0 mi ENE 5.8 mph - 0.01 in Rain Light Rain
11:53 AM 78.1 °F - 75.0 °F 90% 29.99 in 10.0 mi ENE 5.8 mph - 0.01 in Rain Light Rain
12:41 PM 78.8 °F - 75.2 °F 89% 30.01 in 10.0 mi ENE 6.9 mph - 0.03 in   Overcast
12:53 PM 79.0 °F - 73.9 °F 84% 29.98 in 10.0 mi NE 6.9 mph - 0.03 in   Overcast
1:13 PM 82.4 °F 88.2 °F 73.4 °F 74% 29.99 in 10.0 mi NE 6.9 mph - N/A   Scattered Clouds
2:53 PM 82.9 °F 88.0 °F 72.0 °F 69% 29.88 in 10.0 mi ENE 6.9 mph - N/A   Partly Cloudy
3:53 PM 82.9 °F 87.5 °F 71.1 °F 67% 29.88 in 10.0 mi ENE 8.1 mph - N/A   Mostly Cloudy
4:53 PM 73.9 °F - 68.0 °F 82% 29.91 in 10.0 mi SSE 13.8 mph 24.2 mph 0.00 in Rain Light Rain
4:58 PM 71.6 °F - 68.0 °F 88% 29.94 in 1.5 mi SSE 16.1 mph 23.0 mph 0.14 in Rain Rain
5:02 PM 69.8 °F - 68.0 °F 94% 29.94 in 0.5 mi ESE 9.2 mph 23.0 mph 0.36 in Fog , Rain Heavy Rain
5:20 PM 69.8 °F - 69.8 °F 100% 29.93 in 1.2 mi East 5.8 mph - 0.74 in Rain Rain
5:29 PM 71.6 °F - 71.6 °F 100% 29.93 in 3.0 mi East 5.8 mph - 0.76 in Rain Rain
5:38 PM 73.4 °F - 71.6 °F 94% 29.93 in 9.0 mi ENE 5.8 mph - 0.76 in Rain Light Rain
5:48 PM 71.6 °F - 71.6 °F 100% 29.92 in 10.0 mi ENE 3.5 mph - 0.76 in Rain Light Rain
5:53 PM 73.0 °F - 71.1 °F 93% 29.90 in 10.0 mi ENE 3.5 mph - 0.76 in Rain Light Rain
6:28 PM 73.4 °F - 69.8 °F 88% 29.93 in 8.0 mi NE 3.5 mph - 0.00 in Rain Light Rain
6:48 PM 73.4 °F - 71.6 °F 94% 29.92 in 2.0 mi NE 6.9 mph - 0.03 in Rain Light Rain
6:53 PM 73.0 °F - 71.1 °F 93% 29.90 in 4.0 mi NE 3.5 mph - 0.04 in Rain Light Rain
7:08 PM 73.4 °F - 71.6 °F 94% 29.92 in 4.0 mi NE 6.9 mph - 0.02 in Rain Light Rain
7:12 PM 73.4 °F - 71.6 °F 94% 29.92 in 5.0 mi ENE 8.1 mph - 0.02 in Rain Light Rain
7:29 PM 73.4 °F - 71.6 °F 94% 29.92 in 8.0 mi ENE 6.9 mph - 0.03 in Rain Light Rain
7:53 PM 73.9 °F - 72.0 °F 93% 29.90 in 5.0 mi ENE 6.9 mph - 0.05 in Rain Light Rain
8:53 PM 73.9 °F - 72.0 °F 93% 29.90 in 5.0 mi ENE 9.2 mph - 0.02 in Rain Light Rain
9:02 PM 73.4 °F - 71.6 °F 94% 29.94 in 2.5 mi East 6.9 mph - 0.04 in Rain Rain
9:15 PM 73.4 °F - 71.6 °F 94% 29.93 in 3.0 mi NE 9.2 mph - 0.11 in Rain Rain
9:26 PM 73.4 °F - 71.6 °F 94% 29.94 in 7.0 mi ENE 6.9 mph - 0.12 in Rain Light Rain
9:53 PM 73.9 °F - 72.0 °F 93% 29.92 in 5.0 mi East 5.8 mph - 0.14 in Rain Rain
10:37 PM 73.4 °F - 71.6 °F 94% 29.94 in 5.0 mi ENE 8.1 mph - 0.05 in Rain Light Rain
10:48 PM 73.4 °F - 71.6 °F 94% 29.95 in 6.0 mi ENE 6.9 mph - 0.07 in Rain Light Rain
10:53 PM 73.0 °F - 72.0 °F 96% 29.92 in 6.0 mi ENE 6.9 mph - 0.07 in Rain Light Rain
11:53 PM 73.0 °F - 72.0 °F 96% 29.91 in 6.0 mi ENE 8.1 mph - 0.02 in Rain Light Rain